Location: Brachstadt
(48.6975°N, 10.6755°E)
Time: 02:35:28
(UTC+00:00)

NOSS 2-2 (C) - Pass Details

Date: 18 September 2020
Orbit: 468 x 1740 km, 63.3° (Epoch: 19 October)

Event Time Altitude Azimuth Distance (km) Brightness Sun altitude
Rises 18:15:22 0° 195° (SSW) 2,509 6.7 -9.4°
Reaches altitude 10° 18:17:34 10° 184° (S) 1,622 5.6 -9.7°
Maximum altitude 18:20:42 31° 120° (ESE) 866 3.8 -10.2°
Drops below altitude 10° 18:24:06 10° 57° (ENE) 1,772 5.5 -10.8°
Sets 18:26:36 0° 47° (NE) 2,790 6.6 -11.2°
